Location: White Ridge parking lot
(35.4984°N, 106.8413°W)
Time: 14:16:05
(UTC-06:00)

OTV 5 (USA 277) - Visible Passes

Search period start: 22 August 2019 00:00
Search period end: 01 September 2019 00:00
Orbit: 305 x 329 km, 54.5° (Epoch: 20 August)

Date Brightness Start Highest point End Pass type
(mag) Time Alt. Az. Time Alt. Az. Time Alt. Az.
22 Aug ? 04:16:43 10° NNE 04:17:16 10° NE 04:17:50 10° NE visible
22 Aug ? 05:49:15 10° WNW 05:51:46 43° SW 05:54:17 10° SSE visible
22 Aug ? 20:33:24 10° S 20:35:21 18° SE 20:36:01 17° ESE visible
23 Aug ? 04:32:46 21° ENE 04:32:46 21° ENE 04:34:17 10° E visible
23 Aug ? 06:04:51 10° W 06:06:09 13° SW 06:07:26 10° SSW visible
23 Aug ? 20:47:06 10° SW 20:49:46 66° SE 20:52:24 10° NE visible
24 Aug ? 21:01:52 10° WSW 21:04:20 32° NW 21:06:48 10° NNE visible
25 Aug ? 21:17:41 10° WNW 21:19:04 13° NW 21:20:27 10° N visible
27 Aug ? 20:11:41 10° W 20:13:47 20° NW 20:15:52 10° NNE visible
